[[{"header":{"parameterUnit":"m.s-1","parameterCategory":1,"la1":30.2991,"la2":30.254,"lo1":-89.0895,"lo2":-89.0444,"dy":0.0017,"dx":0.0017,"nx":28,"ny":28,"refTime":"2024-06-16T09:00:00:Z","depth":0,"parameterNumber":2,"parameterNumberName":"U-component_of_WINDS"},"data":[0,0,0,0,0,0,0,0,0,0,0,0,0,0,0,0,0,0,0,0,0,0,0,0,0,0,0,0,0,0,0,0,0,0,0,0,0,0,0,0,0,0,0,0,0,0,0,0,0,0,0,0,0,0,0,0,0,0,-5.001,-5.001,0,-4.9992,-4.9992,-4.9991,-4.9775,-4.977,-4.9764,-4.9759,-4.9744,-4.9748,-4.9753,0,0,0,0,0,0,0,0,0,0,0,0,0,-4.986,-4.9863,-5.001,-5.001,-5.0009,-4.9992,-4.9992,-4.9991,-4.9776,-4.9769,-4.9763,-4.9757,-4.9742,-4.9748,-4.9753,0,0,0,0,0,0,0,0,0,0,0,0,0,-4.9892,-4.9865,-5.001,-4.99,-4.989,-4.9992,-4.9992,-4.9991,-4.9777,-4.9769,-4.9761,-4.9753,-4.974,-4.9747,-4.9754,-4.9961,0,0,-4.9775,-4.9778,0,0,0,0,0,0,0,0,-4.989,-4.9898,-4.9916,-4.9908,-4.9896,-4.9877,-4.9933,-4.9981,-4.9779,-4.982,-4.9759,-4.9749,-4.9795,-4.9797,-4.9812,-4.9961,-4.996,-4.9776,-4.978,-4.9783,-4.9785,0,0,0,0,0,0,0,-4.9888,-4.9897,-5.0003,-4.9917,-4.9905,-4.9852,-4.9847,-4.9941,-4.9854,-4.9816,-4.98,-4.9801,-4.9788,-4.9805,-4.981,-4.996,-4.9776,-4.9782,-4.9786,-4.9789,-5.0276,-5.0284,0,0,0,0,0,0,-4.9901,-4.9897,-5.0003,-5.0002,-4.9873,-4.9861,-4.9856,-4.9892,-4.9852,-4.9838,-4.9808,-4.9791,-4.9797,-4.9802,-4.9808,-5.0047,-4.9783,-4.979,-4.9794,-5.0268,-5.0278,-5.0288,0,0,0,0,0,0,-4.9899,-4.9913,-5.0004,-4.9945,-4.9953,-4.9872,-4.9914,-4.9896,-4.9913,-4.9846,-4.983,-4.9842,-4.9791,-4.9798,-4.9924,-5.0043,-4.9793,-4.9799,-5.0257,-5.0271,-5.0283,-5.0527,0,0,0,0,0,0,-4.9895,-4.9913,-4.9991,-4.9948,-4.9957,-5.0121,-4.9922,-4.9901,-4.9925,-4.9903,-4.9873,-4.9861,-4.9785,-4.9915,-4.9931,-5.0048,-4.9805,-5.0246,-5.0263,-5.0279,-5.0508,-5.0547,-5.058,0,0,0,0,0,-4.9891,-5.0061,-4.9996,-5.001,-5.0052,-5.0128,-5.0132,-5.0041,-4.9936,-5.0013,-4.997,-4.9861,-5.0028,-4.993,-4.9946,-5.0067,-5.0238,-5.0258,-5.0277,-5.0492,-5.0539,-5.0579,0,0,0,0,0,0,-5.012,-5.0053,-4.998,-5.0142,-5.0142,-5.0091,-5.0186,-5.0095,-5.0126,-5.0104,-4.999,-4.9985,-5.0129,-5.011,-5.0002,-5.0265,-5.0114,-5.0138,-5.0271,-5.0316,-5.0351,-5.0352,-4.9811,0,0,0,0,0,-5.019,-5.0256,-5.0194,-5.0343,-5.0347,-5.0267,-5.0297,-5.0227,-5.0222,-5.0222,-5.0188,-5.0189,-5.024,-5.0277,-5.0322,-5.0505,-5.0495,-5.0596,-5.0632,-5.0662,-5.0684,-5.0778,-5.0822,-5.0352,-5.0352,-5.0351,0,0,-5.0334,-5.0306,-5.0355,-5.0389,-5.038,-5.0452,-5.0268,-5.0352,-5.0404,-5.0234,-5.035,-5.0326,-5.032,-5.0475,-5.0541,-5.0464,-5.0812,-5.0687,-5.0712,-5.0717,-5.0803,-5.0847,-5.0887,-5.0365,-5.0363,-5.0361,0,0,-5.0633,-5.0619,-5.074,-5.0735,-5.0724,-5.067,-5.07,-5.0663,-5.0639,-5.0754,-5.0628,-5.0689,-5.0781,-5.0781,-5.0793,-5.1093,-5.0994,-5.1111,-5.1299,-5.1392,-5.1429,-5.1461,-5.1566,-5.1606,-5.1133,-5.1133,-5.1134,0,-5.0813,-5.0915,-5.0814,-5.0906,-5.0924,-5.0773,-5.0895,-5.0896,-5.0901,-5.0918,-5.0831,-5.0943,-5.0928,-5.108,-5.1153,-5.1169,-5.1199,-5.1112,-5.1431,-5.1463,-5.1491,-5.1591,-5.1631,-5.1147,-5.1146,-5.1144,-5.1143,0,-5.1137,-5.121,-5.1309,-5.1317,-5.1346,-5.1454,-5.1369,-5.1411,-5.1339,-5.1295,-5.1413,-5.139,-5.1426,-5.1458,-5.1389,-5.1601,-5.1552,-5.1451,-5.1297,-5.1552,-5.1643,-5.1681,-5.1168,-5.1162,-5.1158,-5.1155,0,0,-5.1579,-5.1529,-5.1567,-5.1568,-5.1545,-5.1599,-5.17,-5.1734,-5.1772,-5.1782,-5.1862,-5.1944,-5.1849,-5.1864,-5.1793,-5.1876,-5.2113,-5.1763,-5.1761,-5.1828,-5.2343,-5.2419,-5.2465,-5.2047,-5.2054,-5.206,-5.2343,0,-5.1866,-5.2032,-5.1944,-5.2122,-5.2188,-5.2045,-5.2132,-5.2128,-5.209,-5.214,-5.2097,-5.2156,-5.2028,-5.2035,-5.211,-5.2068,-5.2214,-5.2047,-5.2121,-5.2125,-5.2126,-5.2512,-5.2593,-5.2861,-5.2379,-5.2385,-5.2389,0,-5.2222,-5.2244,-5.2429,-5.2393,-5.2417,-5.2497,-5.2521,-5.2571,-5.2564,-5.2529,-5.2546,-5.2456,-5.2552,-5.2401,-5.2531,-5.2419,-5.2445,-5.2429,-5.2437,-5.2439,-5.2272,-5.2524,-5.2945,-5.2985,-5.2445,-5.244,-5.2436,0,-5.2524,-5.2601,-5.272,-5.2726,-5.2687,-5.2746,-5.2733,-5.2718,-5.2744,-5.2766,-5.2781,-5.2815,-5.2834,-5.2862,-5.2784,-5.2681,-5.2925,-5.2767,-5.2899,-5.2902,-5.2955,-5.2953,-5.3386,-5.2976,-5.2975,-5.2974,-5.2974,0,-5.2851,-5.297,-5.2855,-5.2929,-5.3057,-5.2955,-5.3086,-5.3057,-5.3045,-5.3111,-5.2991,-5.3056,-5.2949,-5.3003,-5.2943,-5.306,-5.307,-5.3045,-5.3027,-5.3055,-5.3058,-5.3069,-5.3047,-5.2985,-5.2983,-5.2981,-5.2979,0,-5.321,-5.3138,-5.3259,-5.3212,-5.3203,-5.33,-5.326,-5.3326,-5.3279,-5.3364,-5.3379,-5.3306,-5.3363,-5.3288,-5.334,-5.3299,-5.3458,-5.3413,-5.346,-5.3447,-5.3582,-5.357,-5.4035,-5.4091,-5.3648,-5.3652,-5.3656,0,-5.3423,-5.351,-5.3472,-5.3507,-5.3501,-5.3559,-5.3585,-5.3489,-5.352,-5.3518,-5.3586,-5.3633,-5.3665,-5.3765,-5.3717,-5.3755,-5.371,-5.387,-5.3714,-5.3739,-5.371,-5.3705,-5.3713,-5.3902,-5.3907,-5.3911,-5.3915,0,-5.3808,-5.3768,-5.3809,-5.3838,-5.3872,-5.389,-5.39,-5.3936,-5.3835,-5.3877,-5.3934,-5.396,-5.4011,-5.406,-5.4085,-5.4072,-5.3978,-5.3964,-5.3996,-5.4025,-5.4048,-5.4035,-5.3545,-5.3954,-5.395,-5.3947,-5.3945,-5.3943,-5.4099,-5.4169,-5.4153,-5.4203,-5.42,-5.4211,-5.4271,-5.4231,-5.4276,-5.431,-5.4251,-5.4323,-5.4313,-5.4337,-5.4335,-5.4391,-5.4321,-5.4369,-5.438,-5.4393,-5.4413,-5.4041,-5.4396,-5.4394,-5.4393,-5.4392,-5.4391,0,-5.4476,-5.4459,-5.4505,-5.4522,-5.4561,-5.4468,-5.4473,-5.4513,-5.4577,-5.4575,-5.461,-5.4675,-5.4722,-5.4678,-5.4716,-5.4769,-5.4726,-5.4782,-5.4776,-5.4775,-5.4474,-5.4441,-5.4816,-5.4816,-5.4815,-5.4815,-5.4815,-5.4815,-5.4677,-5.479,-5.4749,-5.486,-5.4841,-5.491,-5.4921,-5.4932,-5.4929,-5.5007,-5.5045,-5.5016,-5.4997,-5.5033,-5.5072,-5.5057,-5.5076,-5.5148,-5.5118,-5.4838,-5.4796,-5.4756,-5.4725,-5.5153,-5.5153,-5.5414,-5.5416,-5.5418]},{"header":{"parameterUnit":"m.s-1","parameterCategory":1,"la1":30.2991,"la2":30.254,"lo1":-89.0895,"lo2":-89.0444,"dy":0.0017,"dx":0.0017,"nx":28,"ny":28,"refTime":"2024-06-16T09:00:00:Z","depth":0,"parameterNumber":3,"parameterNumberName":"V-component_of_WINDS"},"data":[0,0,0,0,0,0,0,0,0,0,0,0,0,0,0,0,0,0,0,0,0,0,0,0,0,0,0,0,0,0,0,0,0,0,0,0,0,0,0,0,0,0,0,0,0,0,0,0,0,0,0,0,0,0,0,0,0,0,0.1546,0.1545,0,0.1438,0.1437,0.1435,0.1319,0.1317,0.1316,0.1314,0.1206,0.1205,0.1203,0,0,0,0,0,0,0,0,0,0,0,0,0,0.1656,0.1655,0.1546,0.1545,0.1544,0.1438,0.1437,0.1435,0.1319,0.1317,0.1315,0.1313,0.1206,0.1205,0.1203,0,0,0,0,0,0,0,0,0,0,0,0,0,0.1584,0.1654,0.1547,0.1473,0.1465,0.1438,0.1437,0.1435,0.132,0.1317,0.1315,0.1312,0.1207,0.1205,0.1203,0.1241,0,0,0.1197,0.1196,0,0,0,0,0,0,0,0,0.1589,0.158,0.1485,0.1478,0.1469,0.1389,0.1435,0.137,0.132,0.1375,0.1314,0.1311,0.1269,0.1262,0.1247,0.1236,0.1231,0.1197,0.1196,0.1195,0.1194,0,0,0,0,0,0,0,0.1594,0.1584,0.1503,0.1484,0.1474,0.1446,0.1433,0.1423,0.1338,0.137,0.1361,0.135,0.1264,0.1249,0.1244,0.1229,0.1197,0.1195,0.1194,0.1193,0.1244,0.1247,0,0,0,0,0,0,0.1609,0.1589,0.1507,0.15,0.1524,0.1447,0.1432,0.1418,0.1337,0.1323,0.1352,0.1345,0.1254,0.1246,0.124,0.1279,0.1195,0.1193,0.1192,0.1242,0.1245,0.1248,0,0,0,0,0,0,0.1612,0.1603,0.1511,0.1542,0.1528,0.1447,0.1432,0.1417,0.1401,0.1324,0.1308,0.1352,0.1252,0.1242,0.1241,0.1273,0.1192,0.119,0.1239,0.1243,0.1246,0.1358,0,0,0,0,0,0,0.1616,0.1605,0.1618,0.1543,0.1527,0.1514,0.1434,0.1416,0.1398,0.1388,0.132,0.1306,0.1249,0.1245,0.1239,0.1269,0.1189,0.1236,0.1241,0.1245,0.1351,0.1365,0.1377,0,0,0,0,0,0.162,0.1654,0.1619,0.1609,0.1541,0.1516,0.1507,0.144,0.1401,0.1414,0.1364,0.1308,0.1271,0.1246,0.1238,0.1268,0.1233,0.1239,0.1245,0.1345,0.1362,0.1377,0,0,0,0,0,0,0.1734,0.1643,0.1603,0.1613,0.1573,0.1497,0.151,0.146,0.1431,0.1423,0.1341,0.1327,0.1336,0.1302,0.1275,0.1301,0.1244,0.1249,0.1323,0.1339,0.1352,0.136,0.1187,0,0,0,0,0,0.1761,0.1747,0.1668,0.1685,0.1667,0.1593,0.1579,0.1531,0.1487,0.1469,0.1419,0.138,0.1359,0.1347,0.1323,0.1346,0.133,0.1363,0.1376,0.1387,0.1392,0.1402,0.1416,0.1267,0.1267,0.1267,0,0,0.1815,0.1763,0.176,0.1706,0.167,0.1659,0.1579,0.157,0.1562,0.1468,0.1464,0.1426,0.1377,0.1388,0.139,0.136,0.143,0.1394,0.1404,0.1402,0.141,0.1424,0.1437,0.1271,0.127,0.1269,0,0,0.1908,0.1867,0.1877,0.1842,0.1788,0.1738,0.1741,0.1672,0.1643,0.1637,0.1567,0.1556,0.1522,0.1489,0.1469,0.1551,0.1499,0.1546,0.1614,0.1625,0.1637,0.1647,0.1677,0.1689,0.1551,0.1551,0.1551,0,0.1983,0.1962,0.1889,0.1884,0.1864,0.1778,0.1788,0.1758,0.17,0.1688,0.1654,0.161,0.157,0.1573,0.1593,0.1579,0.158,0.1553,0.1641,0.165,0.1659,0.1687,0.1698,0.1557,0.1557,0.1556,0.1555,0,0.2057,0.2044,0.2059,0.2003,0.1984,0.1987,0.1916,0.1905,0.1859,0.1814,0.181,0.1759,0.1725,0.1722,0.1677,0.1719,0.1701,0.1656,0.1597,0.168,0.1705,0.1715,0.1566,0.1564,0.1562,0.1561,0,0,0.2219,0.2123,0.213,0.2104,0.2038,0.2027,0.2027,0.1992,0.1986,0.1948,0.1947,0.192,0.1878,0.1854,0.1805,0.1814,0.1884,0.1767,0.1765,0.1791,0.1928,0.1964,0.1977,0.1849,0.1851,0.1852,0.1933,0,0.2301,0.2294,0.2229,0.2241,0.2229,0.2148,0.2148,0.2108,0.2066,0.2051,0.2004,0.1987,0.1931,0.1917,0.1923,0.1874,0.1911,0.1868,0.1848,0.1848,0.1863,0.199,0.2027,0.2105,0.1942,0.1943,0.1945,0,0.2395,0.2363,0.2375,0.2309,0.2302,0.2303,0.2266,0.2252,0.2206,0.2174,0.2149,0.2093,0.2089,0.2034,0.2029,0.2001,0.1989,0.1965,0.1966,0.1962,0.1902,0.199,0.2128,0.214,0.1959,0.1958,0.1957,0,0.2513,0.2473,0.2474,0.2455,0.2378,0.2381,0.235,0.2301,0.2285,0.2253,0.2242,0.2211,0.2194,0.2172,0.211,0.2075,0.2112,0.2052,0.2087,0.2089,0.2099,0.2099,0.2238,0.2091,0.2091,0.2091,0.209,0,0.2612,0.2622,0.2526,0.2528,0.2537,0.2463,0.2475,0.2435,0.2393,0.2386,0.2314,0.231,0.2227,0.2214,0.2165,0.2169,0.2162,0.2137,0.2124,0.2144,0.2147,0.2135,0.2129,0.2094,0.2093,0.2092,0.2092,0,0.2745,0.2681,0.2678,0.2606,0.2588,0.2598,0.2537,0.2536,0.249,0.2482,0.2476,0.2403,0.2384,0.2319,0.2284,0.2251,0.227,0.2245,0.2286,0.2277,0.2317,0.2315,0.2453,0.2468,0.2312,0.2314,0.2315,0,0.2812,0.2818,0.2747,0.2737,0.2708,0.2693,0.2676,0.2603,0.2588,0.2537,0.2542,0.2517,0.2492,0.2465,0.241,0.2383,0.2357,0.2407,0.2352,0.2372,0.2358,0.2359,0.236,0.242,0.2422,0.2423,0.2425,0,0.2939,0.2907,0.2884,0.2852,0.2833,0.2804,0.2771,0.2767,0.2686,0.2673,0.2652,0.2633,0.2597,0.2573,0.2537,0.2505,0.2452,0.2443,0.2449,0.247,0.2493,0.2482,0.2319,0.244,0.2438,0.2437,0.2436,0.2436,0.3041,0.3043,0.2993,0.2971,0.2938,0.2909,0.2905,0.2858,0.2838,0.2803,0.2761,0.2745,0.27,0.2646,0.2619,0.2606,0.2577,0.2587,0.2589,0.2593,0.2603,0.2495,0.2599,0.2599,0.2598,0.2598,0.2597,0,0.3164,0.3128,0.3109,0.3064,0.3048,0.2998,0.2959,0.2949,0.2935,0.2897,0.2874,0.2851,0.2827,0.2771,0.2742,0.2743,0.2718,0.2738,0.2738,0.2732,0.263,0.2627,0.2759,0.2759,0.2759,0.2759,0.2759,0.2759,0.3226,0.3227,0.319,0.3175,0.3138,0.3122,0.3104,0.3077,0.3046,0.3023,0.3003,0.2966,0.2921,0.2889,0.2865,0.2849,0.2843,0.2871,0.2848,0.2754,0.2739,0.2724,0.2721,0.287,0.287,0.295,0.295,0.2951]}]]